This is the latest recevied weather packets stored in our database for station/object ZR6G-15. If no packets are shown the sender has not sent any weather packets the latest 10 day(s).
| Time | Temp. | Humidity | Pressure | Rain* | Wind** | Luminosity | Snow |
|---|---|---|---|---|---|---|---|
| 1778236095 | 17.78° C | 18% | 1010.4 hPa | - | - | - | - |
| 1778235490 | 17.78° C | 18% | 1010.6 hPa | - | - | - | - |
| 1778234886 | 17.78° C | 18% | 1010.8 hPa | - | - | - | - |
| 1778234281 | 16.67° C | 18% | 1011.4 hPa | - | - | - | - |
| 1778233676 | 16.67° C | 18% | 1011.8 hPa | - | - | - | - |
| 1778233072 | 15.56° C | 18% | 1012 hPa | - | - | - | - |
| 1778232467 | 16.67° C | 18% | 1012.3 hPa | - | - | - | - |
| 1778231863 | 15.56° C | 18% | 1012.6 hPa | - | - | - | - |
| 1778231258 | 15.56° C | 18% | 1012.7 hPa | - | - | - | - |
| 1778230654 | 16.67° C | 18% | 1013 hPa | - | - | - | - |
| 1778230049 | 15° C | 19% | 1013.5 hPa | - | - | - | - |
| 1778229444 | 13.89° C | 19% | 1014.1 hPa | - | - | - | - |
| 1778228840 | 13.89° C | 19% | 1014.5 hPa | - | - | - | - |
| 1778228235 | 12.78° C | 19% | 1015.2 hPa | - | - | - | - |
| 1778227627 | 12.78° C | 26% | 1016.1 hPa | - | - | - | - |
| 1778227023 | 10.56° C | 29% | 1017 hPa | - | - | - | - |
| 1778226418 | 10° C | 34% | 1017.6 hPa | - | - | - | - |
| 1778225813 | 10° C | 36% | 1017.9 hPa | - | - | - | - |
| 1778225209 | 10° C | 38% | 1018 hPa | - | - | - | - |
| 1778224604 | 8.89° C | 34% | 1018 hPa | - | - | - | - |
| 1778223999 | 8.89° C | 38% | 1018 hPa | - | - | - | - |
| 1778223394 | 8.89° C | 41% | 1018.1 hPa | - | - | - | - |
| 1778222790 | 8.89° C | 38% | 1018.3 hPa | - | - | - | - |
| 1778222185 | 8.89° C | 43% | 1018.6 hPa | - | - | - | - |
| 1778221580 | 6.67° C | 48% | 1019.3 hPa | - | - | - | - |
* Rain since midnight (hover to see other rain measurements)
** Current wind speed in m/s (hover to see current wind gust speed)